Погода в Аккуавиве

Сан-Марино     43°56′21″N   12°26′33″E
темп.,
°C
ветер,
м/с
пор.,
м/с
влажн.,
%
обл.,
%
осадки,
мм/ч
давл.,
гПа
погр.,
м
8 декабря, ср
ср801:00+3ю23575 0.0 101255
04:00+4ю3352100 0.0 101054
07:00+5ю3348100 0.0 100856
10:00+6ююв4848100 0.0 1007241
13:00+9ююв51358100 0.0 1002653
16:00+9юв5971100 0.1 999252
19:00+7ссз2294100 2.0 100080
22:00+8ю3388100 0.8 99979
9 декабря, чт
чт901:00+7з2490100 5.6 999157
04:00+6юз2485100 3.9 1000175
07:00+4сз2291100 3.9 1001172
10:00+4сз3393100 0.0 1002311
13:00+4сз2292100 0.1 1003295
16:00+4сз3392100 0.1 1004422
19:00+4зсз3492100 0.6 1006450
22:00+4з2494100 0.1 1007314
10 декабря, пт
пт1001:00+4зсз349393 0.1 1008289
04:00+3з239129 0.0 1007116
07:00+3юз118389 0.0 100741
10:00+5ю1171100 0.0 1006177
13:00+8ю2461100 0.0 1003667
16:00+7ююв2473100 0.1 1000233
19:00+5юв4989100 1.8 1000792
22:00+6всв6988100 11.4 998949
11 декабря, сб
сб1101:00+7св91484100 21.8 9971215
04:00+8ссв101471100 8.1 9981209
07:00+3сз61190100 12.6 1003678
10:00+3зсз598396 0.8 1007475
13:00+9св8136428 0.8 10091249
16:00+8св813615 0.0 1012732
19:00+4з237727 0.0 1015133
22:00+3зсз24794 0.0 1018116
12 декабря, вс
вс1201:00+3зюз22760 0.0 101969
04:00+2з23750 0.0 102170
07:00+2з23732 0.0 102372
10:00+5зсз24610 0.0 1025263
13:00+6сз35535 0.0 1025489
16:00+5сз23643 0.0 1026130
19:00+3зюз22705 0.0 102754
22:00+3юз11672 0.0 102837